Location: ????????
(55.3939°N, 37.4780°E)
Time: 06:18:13
(UTC+00:00)

Cosmos 1933 Rocket - Pass Details

Date: 14 April 2026
Orbit: 600 x 622 km, 82.5° (Epoch: 12 May)

Event Time Altitude Azimuth Distance (km) Brightness Sun altitude
Rises 17:30:27 0° 185° (S) 2,872 6.7 -8.2°
Reaches altitude 10° 17:32:39 10° 184° (S) 1,975 5.9 -8.5°
Maximum altitude 17:37:01 77° 100° (E) 641 3.5 -9.0°
Drops below altitude 10° 17:41:28 10° 14° (NNE) 2,002 6.4 -9.5°
Sets 17:43:43 0° 13° (NNE) 2,915 7.3 -9.8°
